Location: Hains Lake
(37.8540°N, 99.8578°W)
Time: 10:38:12
(UTC+00:00)

Tiros 1 despin weight - Pass Details

Date: 21 April 2021
Orbit: 593 x 642 km, 48.2° (Epoch: 07 May)

Event Time Altitude Azimuth Distance (km) Brightness Sun altitude
Rises 18:55:52 0° 285° (WNW) 2,842 ? 64.0°
Reaches altitude 10° 18:59:24 10° 256° (WSW) 1,926 ? 63.8°
Maximum altitude 19:01:16 12° 231° (SW) 1,761 ? 63.8°
Drops below altitude 10° 19:03:07 10° 205° (SSW) 1,915 ? 63.7°
Sets 19:06:37 0° 176° (S) 2,807 ? 63.5°
